Tracking 31011 objects as of 11-Jul-2025
HD Live streaming from Space Station
objects crossing your sky now

OBJECT D

Track OBJECT D now!
10-day predictions


NORAD ID: 54817
Int'l Code: 2022-163D
Perigee: 901.3 km
Apogee: 918.8 km
Inclination: 67.1 °
Period: 103.1 minutes
Semi major axis: 7281 km
RCS: Unknown
Launch date: November 30, 2022
Source: Commonwealth of Independent States (former USSR) (CIS)
Launch site: PLESETSK MISSILE AND SPACE COMPLEX (PKMTR)
Your satellite tracking list
Your tracking list is empty




NASA's NSSDC Master Catalog

Two Line Element Set (TLE):
1 54817U 22163D   25191.77310034  .00000028  00000-0  73542-4 0  9997
2 54817  67.1379 214.6254 0012021 321.3100  38.7122 13.97368126129786
Source of the keplerian elements: AFSPC